Regional Weather Roundup
Issued by NWS Huntsville, AL

Home | Current Version | Previous Version | Text Only | Print | Product List | Glossary On
Versions: 1 2 3 4 5 6 7 8 9 10 11 12 13 14 15 16 17 18 19 20 21 22 23 24 25 26 27 28 29 30 31 32 33 34 35 36 37 38 39 40 41 42 43 44 45 46 47 48 49 50
000
ASUS44 KHUN 271310
RWRHUN

WEATHER ROUNDUP FOR THE TENNESSEE VALLEY
NATIONAL WEATHER SERVICE HUNTSVILLE AL
700 AM CST FRI FEB 27 2015

ALZ001>004-271400-
NORTHWEST ALABAMA

CITY           SKY/WX    TMP DP  RH WIND       PRES   REMARKS
COURTLAND HCN    N/A     21 N/A N/A MISG        N/A
SHOALS AIRPORT PTCLDY    23  11  60 N9        30.50R WCI  13
SHOALS TVA RES   N/A     21 N/A N/A MISG        N/A
$$

ALZ005>007-016-271400-
NORTH CENTRAL ALABAMA

CITY           SKY/WX    TMP DP  RH WIND       PRES   REMARKS
CULLMAN AG STN   N/A     25 N/A N/A N6          N/A  WCI  18
DECATUR AP     CLOUDY    25  17  72 MISG      30.47R
HUNTSVILLE AP  CLOUDY    27  17  66 N9        30.46R WCI  18
HUN NWS/UAH      N/A     25  15  64 VRB8        N/A  WCI  16
MERIDIANVILLE  MOCLDY    27  16  63 N7        30.45R WCI  19
REDSTONE ARSN  CLOUDY    26  17  71 N13       30.45R WCI  14
VINEMONT AP    CLOUDY    24  17  73 N7        30.43R WCI  16
$$

ALZ008>010-271400-
NORTHEAST ALABAMA

CITY           SKY/WX    TMP DP  RH WIND       PRES   REMARKS
ALBERTVILLE    CLOUDY    27  23  86 N7        30.39R WCI  19
FORT PAYNE     CLOUDY    28  19  69 N7        30.40R WCI  21
SCOTTSBORO AP  CLOUDY    27  19  74 N9        30.44R WCI  17
SCOTTSBORO HCN   N/A     27 N/A N/A MISG        N/A
VALLEY HEAD      N/A     27 N/A N/A MISG        N/A
$$

TNZ076-096-097-271400-
SOUTHEASTERN MIDDLE TENNESSEE

CITY           SKY/WX    TMP DP  RH WIND       PRES   REMARKS
TULLAHOMA      CLOUDY    19  14  79 N8        30.43R WCI   9
WINCHESTER     CLOUDY    23  18  80 N8        30.43R WCI  14
$$

...SURROUNDING SITES...

CITY           SKY/WX    TMP DP  RH WIND       PRES   REMARKS
ATLANTA        PTCLDY    30  24  78 NW14      30.32R WCI  19
ANNISTON       CLOUDY    30  22  72 N7        30.41R WCI  23
BIRMINGHAM     CLOUDY    29  23  78 N10       30.43R WCI  20
CHATTANOOGA    MOCLDY    29  19  66 N13       30.42R WCI  19
CORINTH        CLOUDY    25  16  68 NE14G21   30.51R WCI  13
DALTON         CLOUDY    28  23  80 N12G18    30.41R WCI  18
GADSDEN        CLOUDY    28  19  69 N12       30.41R WCI  18
GOLDEN TRNGL   CLOUDY    30  21  69 N7        30.45R WCI  23
HALEYVILLE       N/A     22  14  71 N8        30.46R WCI  13
JACKSON TN     PTCLDY    19  12  74 N9        30.55R WCI   8
LEWISBURG        N/A     19  12  74 N6        30.49R WCI  11
MEMPHIS        PTCLDY    21  11  65 NE12      30.54R WCI   9
NASHVILLE      PTCLDY    19  13  77 N9        30.52R WCI   8
OXFORD MS      FAIR      19  14  79 N7        30.52R WCI  10
ROME           CLEAR     28  22  78 N9        30.39R WCI  19
SAVANNAH       CLEAR     21   7  53 NE5       30.52R WCI  15
TUPELO         CLOUDY    26  17  68 NE13      30.50R WCI  15
TUSCALOOSA     CLOUDY    31  22  69 N17       30.46R WCI  19
$$

...GULF COAST WEATHER...

CITY           SKY/WX    TMP DP  RH WIND       PRES   REMARKS
GULFPORT       CLEAR     32  28  85 N9        30.39R WCI  24
PASCAGOULA     CLEAR     32  29  88 N10       30.39R WCI  24
MOBILE         PTCLDY    30  28  92 N12       30.38R FOG     WCI  20
GULF SHORES    SUNNY     33  30  90 N10       30.36R WCI  25
PENSACOLA      PTCLDY    36  31  82 N9        30.34R WCI  29
DESTIN         PTCLDY    38  32  79 N13       30.33R WCI  30
PANAMA CITY    PTCLDY    39  34  82 NE8       30.31R WCI  33
APPALACHICOLA  PTSUNNY   43  35  73 N12       30.29R
$$



USA.gov is the U.S. government's official web portal to all federal, state and local government web resources and services.